Regional Weather Roundup
Issued by NWS Sterling, VA

Home | Current Version | Previous Version | Graphics & Text | Print | Product List | Glossary On
Versions: 1 2 3 4 5 6 7 8 9 10 11 12 13 14 15 16 17 18 19 20 21 22 23 24 25 26 27 28 29 30 31 32 33 34 35 36 37 38 39 40 41 42 43 44 45 46 47 48 49 50
000
ASUS41 KLWX 241410
RWRLWX

REGIONAL WEATHER ROUNDUP
NATIONAL WEATHER SERVICE BALTIMORE MD/WASHINGTON DC
900 AM EST SAT JAN 24 2015

Note: "FAIR" indicates few or no clouds below 12,000 feet
with no significant weather and/or obstructions to visibility.
 TC=TEMPERATURE CELSIUS

 * =Non NWS site. Station does not report precipitation (e.g. rain,
    snow, etc.), thunder, or fog.

DCZ001-MDZ009-015-VAZ040>042-051-053>054-241500-
WASHINGTON METRO

CITY           SKY/WX    TMP DP  RH WIND       PRES   REMARKS
WASHINGTON NAT DRIZZLE   37  34  87 N9        29.56F
DULLES         CLOUDY    35  32  88 N9        29.55F FOG     WCI  28
ANDREWS AFB    DRIZZLE   35  35  99 NW9       29.53F FOG     WCI  28
FT BELVOIR     CLOUDY    36  34  93 N6        29.56F
QUANTICO       CLOUDY    37  33  85 N9        29.54F
COLLEGE PARK*  CLOUDY    36  36 100 N6        29.54F
LEESBURG*      CLOUDY    34  34 100 N8        29.56F FOG     WCI  27
MANASSAS*      CLOUDY    36  36 100 N12       29.55F WCI  27
GAITHERSBURG*  CLOUDY    34  30  86 N3        29.56F

$$

MDZ006>007-011-014-241500-
BALTIMORE METRO

CITY           SKY/WX    TMP DP  RH WIND       PRES   REMARKS
BWI AIRPORT    DRIZZLE   35  34  96 NW6       29.53F FOG
MD SCIENCE CTR   N/A     34  34 100 MISG      29.55F
MARTIN STATE   DRIZZLE   36  36 100 NW8       29.57F FOG
ANNAPOLIS      CLOUDY    36  33  89 N12       29.54S FOG     WCI  28
FORT MEADE*    CLOUDY    34  34 100 N6        29.55F

$$

MDZ012-015-019>023-241500-
MARYLAND EASTERN SHORE

CITY           SKY/WX    TMP DP  RH WIND       PRES   REMARKS
OCEAN CITY     LGT RAIN  38  37  97 N15G22    29.43S
SALISBURY      CLOUDY    39  35  86 N9        29.47S
BAY BRIDGE AP*   N/A     34  34 100 NW12G17   29.55R FOG     WCI  25
CAMBRIDGE*     CLOUDY    37  36  93 N9        29.49F
EASTON*        LGT RAIN  37  37 100 N12G17    29.55S VSB 1

$$

MDZ017>025-241500-
SOUTHERN MARYLAND

CITY           SKY/WX    TMP DP  RH WIND       PRES   REMARKS
PATUXENT RIVER CLOUDY    36  33  89 N16       29.51F FOG     WCI  26
ST INIGOES     CLOUDY    36  32  85 N7        29.51F
LEONARDTOWN*   CLOUDY    34  32  93 N3        29.52F

$$

MDZ003>005-241500-
NORTH CENTRAL MARYLAND

CITY           SKY/WX    TMP DP  RH WIND       PRES   REMARKS
FREDERICK*     CLOUDY    36  30  80 NE5       29.59F
HAGERSTOWN APT LGT SNOW  33  31  92 NW8       29.55F FOG     WCI  26
WESTMINSTER*   LGT SNOW  32  30  93 CALM        N/A  VSB 3/4

$$

MDZ501>502-241500-
WESTERN MARYLAND

CITY           SKY/WX    TMP DP  RH WIND       PRES   REMARKS
OAKLAND*       FOG       30 N/A N/A W5        29.53F VSB<1/4
CUMBERLAND*    CLOUDY    34  34 100 NE3       29.62F

$$

VAZ025>031-241500-
SHENANDOAH VALLEY

CITY           SKY/WX    TMP DP  RH WIND       PRES   REMARKS
WINCHESTER*    CLOUDY    34  32  93 NW6       29.57S
FRONT ROYAL*   CLOUDY    32  32 100 CALM      29.56F
LURAY*         CLOUDY    34  34 100 CALM      29.57S FOG
NEW MARKET*    CLOUDY    32  32 100 CALM      29.56S
STAUNTON*      CLOUDY    34  32  94 CALM      29.57R FOG
WAYNESBORO*    CLOUDY    32  32 100 W5        29.54R

$$

WVZ021-048>050-054>055-241500-
EASTERN WEST VIRGINIA PANHANDLE

CITY           SKY/WX    TMP DP  RH WIND       PRES   REMARKS
MARTINSBURG    CLOUDY    35  31  85 N3        29.56F FOG
PETERSBURG*    CLOUDY    34  33  99 CALM      29.59F FOG

$$

VAZ036>039-050-241500-
CENTRAL FOOTHILLS

CITY           SKY/WX    TMP DP  RH WIND       PRES   REMARKS
CHARLOTTESVILL CLOUDY    34  33  96 CALM      29.54F FOG
CULPEPER*      CLOUDY    36  36 100 N6        29.54F
ORANGE*        CLOUDY    36  34  93 NW9       29.54F WCI  29
GORDONSVILLE*  CLOUDY    35  33  93 N7        29.54S
WARRENTON*     CLOUDY    36  36 100 N12       29.53F WCI  28

$$

VAZ055>057-241500-
NORTH AND CENTRAL PIEDMONT

CITY           SKY/WX    TMP DP  RH WIND       PRES   REMARKS
FREDERICKSBRG* CLOUDY    36  36 100 N8        29.52F
STAFFORD*      CLOUDY    35  32  88 N8        29.56F FOG     WCI  29

$$

NCZ024-NYZ072-PAZ021-071-VAZ022-071-241500-
OTHER REGIONAL OBSERVATIONS

CITY           SKY/WX    TMP DP  RH WIND       PRES   REMARKS
NEW YORK CITY  CLOUDY    34  31  88 NE8       29.55F FOG     WCI  27
PHILADELPHIA   DRIZZLE   34  32  92 N12       29.54S FOG     WCI  25
PITTSBURGH     CLOUDY    27  23  85 NW12      29.64S FOG     WCI  17
ROANOKE        CLOUDY    39  33  79 NW12      29.58F
RICHMOND       CLOUDY    37  36  96 N12       29.53F
RALEIGH        CLOUDY    37  34  89 NW6       29.57F

$$

ANZ530>537-241500-
MARINE OBSERVATIONS

STATION/POSITION TIME  TEMP    WIND        PRES
                       AIR SEA DIR/SP/G
                 (UTC) (F)     (DEG/KT/KT) (MB)
THOMAS PT LIGHT  1400   35 37  360/ 14/ 15 1000.7F
BALT KEY BRIDGE  1400   35     310/  7/  8 1000.8R
COVE POINT       1400   35     360/ 12/ 17  999.4R
LEWISETTA        1400   36 38  350/  8/ 11  999.4F
SOLOMONS ISLAND  1400      38                N/A
PINEY POINT      1400           10/  9/ 11   N/A

$$



USA.gov is the U.S. government's official web portal to all federal, state and local government web resources and services.